Home > Weather > Binghamton > Past weeks

Flag for USA Weather for the Past 2 Weeks in Binghamton, New York, USA

Now
52 °F

Low clouds.


Feels Like: 48 °F
Forecast: 47 / 56 °F
Wind: 12 mph from Northwest

Location: Binghamton Regional Airport

Current Time: May 2, 2016 at 4:15:05 PM

Latest Report: May 2, 2016 at 2:53 PM


Visibility: 10 mi

Pressure: 29.90 "Hg

Humidity: 86%

Dew Point: 48 °F

Location of BinghamtonLocation

Historic Weather in Binghamton — Graph

°F

Binghamton Temperature Yesterday

Maximum temperature yesterday: 48 °F (at 12:53 AM)
Minimum temperature yesterday: 38 °F (at 9:53 AM)
Average temperature yesterday: 43 °F

High & Low Weather Summary for the Past Weeks

 TemperatureHumidityPressure
High72 °F (Apr 17, 2:53 PM)100% (Apr 22, 9:53 PM)30.35 "Hg (Apr 22, 9:53 PM)
Low30 °F (Apr 27, 5:53 AM)13% (Apr 20, 3:53 PM)29.64 "Hg (Apr 26, 8:53 AM)
Average49 °F60%30.04 "Hg
* Reported Apr 17 2:53 PM — May 2 2:53 PM, Binghamton, Weather by CustomWeather, © 2016

Note: Actual official high and low records may vary slightly from our data, if they occured in-between our weather recording intervals... More about our weather records

Advertising

Binghamton Weather History for the Previous 24 Hours

Scroll right to see more
 ConditionsComfort  
Time TempWeatherWind HumidityBarometerVisibility
2:53 PM
Mon, May 2
52 °FLow clouds.12 mph86%29.90 "Hg10 mi
1:53 PM50 °FMostly cloudy.9 mph96%29.91 "Hg10 mi
12:53 PM49 °FLow clouds.6 mph97%29.90 "Hg10 mi
11:53 AM48 °FFog.3 mph96%29.89 "Hg6 mi
10:53 AM47 °FLight rain. Fog.5 mph100%29.89 "Hg0 mi
10:02 AM46 °FFog.8 mph100%29.85 "Hg1 mi
9:53 AM46 °FFog.9 mph100%29.87 "Hg1 mi
8:53 AM45 °FLight rain. Fog.7 mph100%29.89 "Hg2 mi
8:01 AM45 °FHeavy rain. Fog.6 mph100%29.90 "Hg1 mi
7:53 AM45 °FHeavy rain. Fog.5 mph100%29.92 "Hg1 mi
6:53 AM45 °FFog.5 mph100%29.91 "Hg0 mi
5:53 AM45 °FFog.6 mph100%29.94 "Hg0 mi
5:03 AM45 °FFog.5 mph100%29.93 "Hg0 mi
3:53 AM45 °FFog.5 mph100%29.97 "Hg2 mi
2:53 AM45 °FLow clouds.5 mph100%29.97 "Hg9 mi
1:53 AM45 °FLow clouds.7 mph97%29.99 "Hg8 mi
12:53 AM45 °FLow clouds.6 mph97%30.00 "Hg10 mi
11:53 PM
Sun, May 1
45 °FFog.10 mph97%30.02 "Hg6 mi
10:53 PM45 °FFog.7 mph97%30.02 "Hg5 mi
9:53 PM45 °FLow clouds.9 mph93%30.03 "Hg10 mi
8:53 PM45 °FLow clouds.7 mph93%30.04 "Hg10 mi
7:53 PM44 °FLow clouds.9 mph96%30.02 "Hg10 mi
6:53 PM44 °FLow clouds.8 mph93%30.01 "Hg10 mi
5:53 PM45 °FLow clouds.10 mph90%30.00 "Hg10 mi
4:53 PM44 °FLow clouds.10 mph93%30.01 "Hg10 mi
Weather by CustomWeather, © 2016

See weather overviewHow to use our weather pages